Baku, Azerbaijan

9:05 PM +04 on August 14, 2018 (GMT +0400)
Bina

Weather History for UBBB - February, 2018

Change the Weather History Date:

Tuesday, February 13, 2018

  Actual Average Record
Temperature  
Mean Temperature 44 °F -  
Max Temperature 48 °F - - ()
Min Temperature 40 °F - - ()
Degree Days  
Heating Degree Days 21    
Moisture  
Dew Point 38 °F    
Average Humidity 82    
Maximum Humidity 100    
Minimum Humidity 61    
Precipitation  
Precipitation 0.00 in - - ()
Sea Level Pressure  
Sea Level Pressure 29.97 in    
Wind  
Wind Speed 10 mph ()    
Max Wind Speed 18 mph    
Max Gust Speed -    
Visibility 6.2 miles    
Events      
T = Trace of Precipitation, MM = Missing Value Source: Averaged Metar Reports

Daily Weather History Graph

Daily Weather History Graph

Search for Another Location

Airport or City:

Astronomy

Feb. 13, 2018 Rise Set
Actual Time 7:36 AM +04 6:12 PM +04
Civil Twilight 7:08 AM +04 6:40 PM +04
Nautical Twilight 6:36 AM +04 7:12 PM +04
Astronomical Twilight 6:04 AM +04 7:44 PM +04
Moon 5:57 AM +04 (2/13) 3:57 PM +04 (2/13)
Length of Visible Light 11h 32m
Length of Day
10h 36m
Waning Crescent, 6% of the Moon is Illuminated
Feb 13
Waning Crescent
Feb 16
New
Feb 23
First Quarter
Mar 2
Full
Mar 9
Last Quarter

Hourly Weather History & Observations

Time (+04) Temp. Windchill Dew Point Humidity Pressure Visibility Wind Dir Wind Speed Gust Speed Precip Events Conditions
12:00 AM 42.8 °F 34.5 °F 41.0 °F 93% 29.86 in 6.2 mi North 18.4 mph - N/A   Overcast
12:30 AM 42.8 °F 34.5 °F 41.0 °F 93% 29.86 in 6.2 mi NNW 18.4 mph - N/A   Overcast
1:00 AM 43 °F - 40 °F 85% 29.88 in 6 mi WNW 11.2 mph - -   Overcast
1:00 AM 42.8 °F 35.4 °F 41.0 °F 93% 29.89 in 6.2 mi NNW 15.0 mph - N/A   Overcast
1:30 AM 42.8 °F 35.8 °F 41.0 °F 93% 29.89 in 6.2 mi NNW 13.8 mph - N/A   Overcast
2:00 AM 42.8 °F 37.5 °F 39.2 °F 87% 29.89 in 6.2 mi NW 9.2 mph - N/A   Overcast
2:30 AM 42.8 °F 37.5 °F 39.2 °F 87% 29.89 in 6.2 mi NW 9.2 mph - N/A   Overcast
3:00 AM 42.8 °F 37.0 °F 39.2 °F 87% 29.92 in 6.2 mi NW 10.4 mph - N/A   Overcast
3:30 AM 42.8 °F 37.5 °F 39.2 °F 87% 29.92 in 6.2 mi NW 9.2 mph - N/A   Mostly Cloudy
4:00 AM 41 °F - 38 °F 86% 29.93 in 6 mi WNW 8.9 mph - -   Overcast
4:00 AM 41.0 °F 34.7 °F 39.2 °F 93% 29.92 in 6.2 mi NW 10.4 mph - N/A   Partly Cloudy
4:30 AM 41.0 °F 34.7 °F 39.2 °F 93% 29.92 in 6.2 mi NW 10.4 mph - N/A   Scattered Clouds
5:00 AM 41.0 °F 34.7 °F 39.2 °F 93% 29.92 in 6.2 mi NW 10.4 mph - N/A   Scattered Clouds
5:30 AM 41.0 °F 34.3 °F 37.4 °F 87% 29.92 in 6.2 mi NW 11.5 mph - N/A   Partly Cloudy
6:00 AM 41.0 °F 33.9 °F 39.2 °F 93% 29.95 in - NW 12.7 mph - N/A   Clear
6:30 AM 41.0 °F 33.9 °F 37.4 °F 87% 29.95 in - NNW 12.7 mph - N/A   Clear
7:00 AM 40 °F - 36 °F 82% 29.96 in 6 mi WNW 8.9 mph - -   Mostly Cloudy
7:00 AM 41.0 °F 35.2 °F 37.4 °F 87% 29.98 in - NW 9.2 mph - N/A   Clear
7:30 AM 41.0 °F 36.4 °F 39.2 °F 93% 29.98 in - NW 6.9 mph - N/A   Clear
8:00 AM 39.2 °F 35.0 °F 39.2 °F 100% 29.98 in - WNW 5.8 mph - N/A   Clear
8:30 AM 41.0 °F 36.4 °F 39.2 °F 93% 30.01 in - NW 6.9 mph - N/A   Clear
9:00 AM 42.8 °F 37.0 °F 39.2 °F 87% 29.98 in - NNW 10.4 mph - N/A   Clear
9:30 AM 42.8 °F 36.2 °F 41.0 °F 93% 30.01 in - NNW 12.7 mph - N/A   Clear
10:00 AM 44 °F - 41 °F 85% 30.01 in 6 mi NW 8.9 mph - -   Clear
10:00 AM 44.6 °F 38.1 °F 41.0 °F 87% 30.01 in 6.2 mi NNW 13.8 mph - N/A   Scattered Clouds
10:30 AM 46.4 °F 40.1 °F 39.2 °F 76% 30.01 in 6.2 mi North 15.0 mph - N/A   Scattered Clouds
11:00 AM 46.4 °F 40.4 °F 39.2 °F 76% 30.01 in 6.2 mi North 13.8 mph - N/A   Scattered Clouds
11:30 AM 46.4 °F 41.1 °F 39.2 °F 76% 30.01 in 6.2 mi NNW 11.5 mph - N/A   Mostly Cloudy
12:00 PM 48.2 °F - 37.4 °F 66% 30.01 in 6.2 mi NNW 9.2 mph - N/A   Mostly Cloudy
12:30 PM 48.2 °F - 37.4 °F 66% 30.01 in 6.2 mi North 8.1 mph - N/A   Mostly Cloudy
1:00 PM 47 °F - 38 °F 61% 30.00 in 6 mi NW 6.7 mph - -   Clear
1:00 PM 48.2 °F - 37.4 °F 66% 30.01 in 6.2 mi North 8.1 mph - N/A   Mostly Cloudy
1:30 PM 48.2 °F - 37.4 °F 66% 29.98 in 6.2 mi North 9.2 mph - N/A   Mostly Cloudy
2:00 PM 46.4 °F 41.9 °F 37.4 °F 71% 29.98 in 6.2 mi North 9.2 mph - N/A   Mostly Cloudy
2:30 PM 46.4 °F 41.9 °F 37.4 °F 71% 29.98 in 6.2 mi North 9.2 mph - N/A   Mostly Cloudy
3:00 PM 46.4 °F 41.9 °F 35.6 °F 66% 29.98 in 6.2 mi North 9.2 mph - N/A   Mostly Cloudy
3:30 PM 46.4 °F 41.5 °F 37.4 °F 71% 29.98 in 6.2 mi NNE 10.4 mph - N/A   Overcast
4:00 PM 45 °F - 38 °F 68% 29.96 in 6 mi NNE 8.9 mph - -   Overcast
4:00 PM 44.6 °F 39.2 °F 37.4 °F 76% 29.98 in 6.2 mi NNE 10.4 mph - N/A   Overcast
4:30 PM 44.6 °F 40.2 °F 37.4 °F 76% 29.98 in 6.2 mi NNE 8.1 mph - N/A   Overcast
5:00 PM 44.6 °F 40.7 °F 37.4 °F 76% 29.98 in 6.2 mi NNE 6.9 mph - N/A   Overcast
5:30 PM 44.6 °F 40.7 °F 37.4 °F 76% 29.98 in 6.2 mi NNE 6.9 mph - N/A   Overcast
6:00 PM 44.6 °F 40.7 °F 37.4 °F 76% 29.98 in 6.2 mi NNE 6.9 mph - N/A   Overcast
6:30 PM 42.8 °F 38.6 °F 39.2 °F 87% 29.98 in 6.2 mi North 6.9 mph - N/A   Overcast
7:00 PM 43 °F - 37 °F 71% 30.00 in 6 mi North 4.5 mph - -   Overcast
7:00 PM 42.8 °F 38.6 °F 37.4 °F 81% 30.01 in 6.2 mi NNE 6.9 mph - N/A   Overcast
7:30 PM 42.8 °F 37.5 °F 37.4 °F 81% 30.01 in 6.2 mi NNE 9.2 mph - N/A   Overcast
8:00 PM 42.8 °F 37.5 °F 39.2 °F 87% 30.01 in 6.2 mi NNE 9.2 mph - N/A   Overcast
8:30 PM 42.8 °F 37.5 °F 37.4 °F 81% 30.01 in 6.2 mi North 9.2 mph - N/A   Overcast
9:00 PM 42.8 °F 37.0 °F 37.4 °F 81% 30.01 in 6.2 mi North 10.4 mph - N/A   Overcast
9:30 PM 42.8 °F 38.0 °F 37.4 °F 81% 30.01 in 6.2 mi North 8.1 mph - N/A   Overcast
10:00 PM 42 °F - 36 °F 72% 30.02 in 6 mi NNW 6.7 mph - -   Overcast
10:00 PM 42.8 °F 37.5 °F 37.4 °F 81% 30.01 in 6.2 mi North 9.2 mph - N/A   Overcast
10:30 PM 42.8 °F 36.6 °F 37.4 °F 81% 30.01 in - North 11.5 mph - N/A   Clear
11:00 PM 42.8 °F 36.6 °F 37.4 °F 81% 30.01 in - North 11.5 mph - N/A   Clear
11:30 PM 42.8 °F 36.2 °F 37.4 °F 81% 30.01 in 6.2 mi North 12.7 mph - N/A   Overcast